Find NORSAT-2

NORAD ID: 42828 Int'l Des: 2017-042 Owner: STATS Country: N operational
LEOCIRCULARRETROGRADESSO

实时位置

正在加载3D地球...

关于 NORSAT-2

正在加载描述...

即将过境

Passes for default location (London). Set your location on the main map for personalized predictions.

高度历史

Loading altitude history...

两行轨道根数

1 42828U 17042D 26132.05404678 .00006365 00000-0 28817-3 0 9995
2 42828 97.4026 306.0938 0010081 171.2653 188.8760 15.21185055482249
Epoch: May 12, 2026 • Age: 11 hours

当前状态

高度 511.0 km
速度 7.61 km/s
星下点 11.22°N, 111.17°W
发射日期 Jul 14, 2017
运行时间 8.8 years
类型 other

技术详情

分类 Payload
质量 30.00 kg
干质量 30.00 kg
总质量 30.00 kg
长度 0.40 m
直径 0.20 m
跨度 0.92 m
形状 Box +2 pan+4 ant
制造商 UTIAS
平台类型 GNB
阶段状态 In Orbit
所有者/国家 STATS/N

Most Searched